DB0RV-13 Weather Reports


Display with metric or nautical units.
time (UTC)temp
F
wind
direction
speed
MPH
gust
MPH
rain 1hr
in
rain 24hr
in
rain mn
in
humidity
%
barometer
mb
20260905230002 59 42 2.0 0.0 0.00 0.00 0.00 91 1024.8
20260905225501 59 32 3.0 0.0 0.00 0.00 0.00 92 1024.7
20260905225001 59 44 2.0 0.0 0.00 0.00 0.00 91 1024.7
20260905224502 58 47 1.0 0.0 0.00 0.00 0.00 90 1024.8
20260905224001 59 46 1.0 0.0 0.00 0.00 0.00 89 1024.7
20260905223502 59 47 2.0 0.0 0.00 0.00 0.00 88 1024.8
20260905223002 59 49 1.0 0.0 0.00 0.00 0.00 89 1024.8
20260905222501 59 324 1.0 0.0 0.00 0.00 0.00 87 1024.7
20260905222002 60 328 2.0 0.0 0.00 0.00 0.00 85 1024.7
20260905221502 61 331 4.0 0.0 0.00 0.00 0.00 84 1024.7
20260905221001 62 329 2.0 0.0 0.00 0.00 0.00 83 1024.7
20260905220502 62 296 2.0 0.0 0.00 0.00 0.00 84 1024.7
20260905220002 60 308 2.0 0.0 0.00 0.00 0.00 87 1024.7
20260905215501 60 315 3.0 0.0 0.00 0.00 0.00 86 1024.6
20260905215002 61 316 3.0 0.0 0.00 0.00 0.00 85 1024.6
20260905214502 62 315 2.0 0.0 0.00 0.00 0.00 84 1024.6
20260905214001 62 313 1.0 0.0 0.00 0.00 0.00 84 1024.5
20260905213501 62 294 0.0 0.0 0.00 0.00 0.00 83 1024.6
20260905213002 62 299 0.0 0.0 0.00 0.00 0.00 83 1024.6
20260905212501 62 311 1.0 0.0 0.00 0.00 0.00 83 1024.5
20260905212002 62 307 1.0 0.0 0.00 0.00 0.00 82 1024.5
20260905211502 63 274 1.0 0.0 0.00 0.00 0.00 81 1024.5
20260905211001 62 0 0.0 0.0 0.00 0.00 0.00 82 1024.5
20260905210502 62 0 0.0 0.0 0.00 0.00 0.00 82 1024.4
20260905210002 62 295 1.0 0.0 0.00 0.00 0.00 83 1024.4
20260905205501 62 331 2.0 0.0 0.00 0.00 0.00 84 1024.4
20260905205001 62 313 3.0 0.0 0.00 0.00 0.00 83 1024.3
20260905204502 62 335 2.0 0.0 0.00 0.00 0.00 82 1024.4
20260905204001 62 0 0.0 0.0 0.00 0.00 0.00 83 1024.4
20260905203501 63 316 2.0 0.0 0.00 0.00 0.00 81 1024.3
20260905203002 64 317 0.0 0.0 0.00 0.00 0.00 79 1024.3
20260905202501 64 284 1.0 0.0 0.00 0.00 0.00 78 1024.3
20260905202001 64 229 1.0 0.0 0.00 0.00 0.00 79 1024.2
20260905201502 64 228 2.0 0.0 0.00 0.00 0.00 80 1024.2
20260905201001 64 236 1.0 0.0 0.00 0.00 0.00 79 1024.1
20260905200502 64 251 1.0 0.0 0.00 0.00 0.00 79 1024.1
20260905200002 64 276 1.0 0.0 0.00 0.00 0.00 79 1024.1
20260905195501 64 264 0.0 0.0 0.00 0.00 0.00 79 1024.2
20260905195002 64 222 1.0 0.0 0.00 0.00 0.00 78 1024.1
20260905194502 64 188 1.0 0.0 0.00 0.00 0.00 78 1024.1
20260905194001 64 186 1.0 0.0 0.00 0.00 0.00 79 1024.1
20260905193501 64 217 2.0 0.0 0.00 0.00 0.00 78 1024.1
20260905193002 64 237 1.0 0.0 0.00 0.00 0.00 78 1024.1
20260905192501 64 250 1.0 0.0 0.00 0.00 0.00 78 1024.0
20260905192002 64 217 0.0 0.0 0.00 0.00 0.00 77 1023.9
20260905191502 64 305 0.0 0.0 0.00 0.00 0.00 77 1023.9
20260905191001 64 261 1.0 0.0 0.00 0.00 0.00 79 1023.8
20260905190502 64 245 1.0 0.0 0.00 0.00 0.00 77 1023.8
20260905190002 64 244 3.0 0.0 0.00 0.00 0.00 76 1023.8
20260905185501 65 276 3.0 0.0 0.00 0.00 0.00 76 1023.7
20260905185001 65 299 2.0 0.0 0.00 0.00 0.00 76 1023.6
20260905184502 64 272 3.0 0.0 0.00 0.00 0.00 77 1023.5
20260905184001 64 247 3.0 0.0 0.00 0.00 0.00 80 1023.5
20260905183501 64 245 2.0 0.0 0.00 0.00 0.00 80 1023.5
20260905183002 64 244 2.0 0.0 0.00 0.00 0.00 80 1023.3
20260905182501 64 246 2.0 0.0 0.00 0.00 0.00 80 1023.3
20260905182002 64 250 3.0 0.0 0.00 0.00 0.00 80 1023.3
20260905181501 64 242 3.0 0.0 0.00 0.00 0.00 79 1023.2
20260905181002 65 241 2.0 0.0 0.00 0.00 0.00 79 1023.2
20260905180501 65 241 6.0 0.0 0.00 0.00 0.00 79 1023.1
20260905180003 65 243 3.0 0.0 0.00 0.00 0.00 78 1023.0
20260905175502 65 243 4.0 0.0 0.00 0.00 0.00 77 1023.0
20260905175002 65 266 2.0 0.0 0.00 0.00 0.00 77 1022.9
20260905174502 66 241 6.0 0.0 0.00 0.00 0.00 77 1022.8
20260905174001 66 248 5.0 0.0 0.00 0.00 0.00 77 1022.8
20260905173503 66 242 6.0 0.0 0.00 0.00 0.00 77 1022.7
20260905173001 66 225 3.0 0.0 0.00 0.00 0.00 77 1022.7
20260905172502 66 246 6.0 0.0 0.00 0.00 0.00 77 1022.7
20260905172001 66 237 7.0 0.0 0.00 0.00 0.00 77 1022.6
20260905171501 66 241 7.0 0.0 0.00 0.00 0.00 76 1022.7
20260905171002 66 240 8.0 0.0 0.00 0.00 0.00 76 1022.7
20260905170502 67 206 8.0 0.0 0.00 0.00 0.00 75 1022.6
20260905170002 67 240 7.0 0.0 0.00 0.00 0.00 74 1022.7
20260905165501 66 272 3.0 0.0 0.00 0.00 0.00 74 1022.6
20260905165002 67 241 9.0 0.0 0.00 0.00 0.00 74 1022.6
20260905164501 67 213 10.0 0.0 0.00 0.00 0.00 73 1022.6
20260905164001 66 254 5.0 0.0 0.00 0.00 0.00 73 1022.7
20260905163501 66 243 7.0 0.0 0.00 0.00 0.00 73 1022.6
20260905163001 66 244 8.0 0.0 0.00 0.00 0.00 73 1022.5
20260905162502 66 252 6.0 0.0 0.00 0.00 0.00 73 1022.6
20260905162002 66 223 6.0 0.0 0.00 0.00 0.00 72 1022.5
20260905161502 66 238 5.0 0.0 0.00 0.00 0.00 71 1022.4
20260905161001 66 212 6.0 0.0 0.00 0.00 0.00 71 1022.3
20260905160502 66 217 5.0 0.0 0.00 0.00 0.00 70 1022.4
20260905160001 66 225 7.0 0.0 0.00 0.00 0.00 70 1022.5
20260905155501 66 204 5.0 0.0 0.00 0.00 0.00 71 1022.5
20260905155001 66 187 4.0 0.0 0.00 0.00 0.00 72 1022.4
20260905154501 67 225 6.0 0.0 0.00 0.00 0.00 71 1022.4
20260905154002 67 225 5.0 0.0 0.00 0.00 0.00 70 1022.5
20260905153501 67 209 3.0 0.0 0.00 0.00 0.00 69 1022.4
20260905153002 66 206 6.0 0.0 0.00 0.00 0.00 69 1022.5
20260905152501 67 211 6.0 0.0 0.00 0.00 0.00 68 1022.5
20260905152002 67 212 5.0 0.0 0.00 0.00 0.00 69 1022.6
20260905151501 66 263 4.0 0.0 0.00 0.00 0.00 68 1022.5
20260905151002 66 263 7.0 0.0 0.00 0.00 0.00 67 1022.5
20260905150502 66 243 6.0 0.0 0.00 0.00 0.00 67 1022.5
20260905150001 66 260 6.0 0.0 0.00 0.00 0.00 67 1022.5
20260905145502 66 245 8.0 0.0 0.00 0.00 0.00 66 1022.6
20260905145002 67 254 7.0 0.0 0.00 0.00 0.00 63 1022.4
20260905144502 67 275 7.0 0.0 0.00 0.00 0.00 64 1022.6
20260905144001 68 243 3.0 0.0 0.00 0.00 0.00 65 1022.4
20260905143502 68 253 8.0 0.0 0.00 0.00 0.00 64 1022.4
20260905143001 68 243 8.0 0.0 0.00 0.00 0.00 64 1022.5
20260905142501 68 248 5.0 0.0 0.00 0.00 0.00 65 1022.7
20260905142001 69 272 10.0 0.0 0.00 0.00 0.00 68 1022.5
20260905141502 70 239 5.0 0.0 0.00 0.00 0.00 69 1022.5
20260905141002 69 263 6.0 0.0 0.00 0.00 0.00 67 1022.5
20260905140502 70 248 4.0 0.0 0.00 0.00 0.00 67 1022.5
20260905140002 70 266 3.0 0.0 0.00 0.00 0.00 67 1022.5
20260905135501 70 271 6.0 0.0 0.00 0.00 0.00 66 1022.4
20260905135002 70 266 6.0 0.0 0.00 0.00 0.00 68 1022.3
20260905134501 71 263 4.0 0.0 0.00 0.00 0.00 67 1022.4
20260905134002 70 284 7.0 0.0 0.00 0.00 0.00 67 1022.3
20260905133501 70 279 2.0 0.0 0.00 0.00 0.00 67 1022.4
20260905133001 71 241 4.0 0.0 0.00 0.00 0.00 67 1022.2
20260905132502 71 254 8.0 0.0 0.00 0.00 0.00 67 1022.2
20260905132001 71 250 4.0 0.0 0.00 0.00 0.00 69 1022.3
20260905131502 71 254 4.0 0.0 0.00 0.00 0.00 67 1022.2
20260905131001 70 250 4.0 0.0 0.00 0.00 0.00 70 1022.3
20260905130502 70 247 3.0 0.0 0.00 0.00 0.00 71 1022.2
20260905130001 70 251 5.0 0.0 0.00 0.00 0.00 70 1022.3
20260905125502 70 241 6.0 0.0 0.00 0.00 0.00 71 1022.3
20260905125001 70 272 5.0 0.0 0.00 0.00 0.00 71 1022.4
20260905124502 69 242 7.0 0.0 0.00 0.00 0.00 74 1022.4
20260905124002 70 241 7.0 0.0 0.00 0.00 0.00 73 1022.3
20260905123501 70 263 8.0 0.0 0.00 0.00 0.00 74 1022.3
20260905123002 69 243 8.0 0.0 0.00 0.00 0.00 74 1022.2
20260905122501 69 233 6.0 0.0 0.00 0.00 0.00 76 1022.3
20260905122002 68 209 7.0 0.0 0.00 0.00 0.00 79 1022.4
20260905121501 67 202 6.0 0.0 0.00 0.00 0.00 79 1022.3
20260905121002 68 195 5.0 0.0 0.00 0.00 0.00 77 1022.4
20260905120502 68 191 3.0 0.0 0.00 0.00 0.00 76 1022.4
20260905120002 67 240 4.0 0.0 0.00 0.00 0.00 76 1022.6
20260905115502 68 230 3.0 0.0 0.00 0.00 0.00 75 1022.5
20260905115001 68 244 2.0 0.0 0.00 0.00 0.00 75 1022.6
20260905114502 66 279 2.0 0.0 0.00 0.00 0.00 73 1022.5
20260905114001 67 275 6.0 0.0 0.00 0.00 0.00 75 1022.5
20260905113502 66 221 5.0 0.0 0.00 0.00 0.00 77 1022.5
20260905113001 65 238 3.0 0.0 0.00 0.00 0.00 81 1022.4
20260905112502 63 196 2.0 0.0 0.00 0.00 0.00 81 1022.4
20260905112001 63 220 4.0 0.0 0.00 0.00 0.00 80 1022.4
20260905111502 63 237 4.0 0.0 0.00 0.00 0.00 79 1022.4
20260905111001 62 234 4.0 0.0 0.00 0.00 0.00 80 1022.3
20260905110501 62 226 1.0 0.0 0.00 0.00 0.00 79 1022.4
20260905110002 63 244 5.0 0.0 0.00 0.00 0.00 79 1022.5
20260905105501 63 233 8.0 0.0 0.00 0.00 0.00 75 1022.4
20260905105002 64 223 2.0 0.0 0.00 0.00 0.00 81 1022.5
20260905104501 64 210 2.0 0.0 0.00 0.00 0.00 80 1022.4
20260905104002 64 190 2.0 0.0 0.00 0.00 0.00 78 1022.3
20260905103501 64 154 2.0 0.0 0.00 0.00 0.00 78 1022.2
20260905103002 64 151 2.0 0.0 0.00 0.00 0.00 80 1022.2
20260905102502 64 150 4.0 0.0 0.00 0.00 0.00 80 1022.2
20260905102002 63 152 5.0 0.0 0.00 0.00 0.00 82 1022.3
20260905101502 64 117 5.0 0.0 0.00 0.00 0.00 84 1022.1
20260905101001 64 117 2.0 0.0 0.00 0.00 0.00 84 1022.3
20260905100502 64 117 3.0 0.0 0.00 0.00 0.00 84 1022.3
20260905100001 63 115 2.0 0.0 0.00 0.00 0.00 87 1022.3
20260905095502 64 83 2.0 0.0 0.00 0.00 0.00 87 1022.4
20260905095001 63 69 2.0 0.0 0.00 0.00 0.00 86 1022.3
20260905094501 62 48 1.0 0.0 0.00 0.00 0.00 87 1022.2
20260905094002 63 49 2.0 0.0 0.00 0.00 0.00 88 1022.3
20260905093502 62 28 6.0 0.0 0.00 0.00 0.00 88 1022.3
20260905093002 62 24 6.0 0.0 0.00 0.00 0.00 88 1022.3
20260905092501 62 25 5.0 0.0 0.00 0.00 0.00 88 1022.2
20260905092002 62 36 6.0 0.0 0.00 0.00 0.00 88 1022.1
20260905091501 62 25 4.0 0.0 0.00 0.00 0.00 89 1022.1
20260905091002 63 44 5.0 0.0 0.00 0.00 0.00 88 1022.0
20260905090501 63 59 4.0 0.0 0.00 0.00 0.00 88 1021.9
20260905090002 63 51 3.0 0.0 0.00 0.00 0.00 86 1021.9
20260905085502 63 86 1.0 0.0 0.00 0.00 0.00 86 1021.9
20260905085002 63 50 1.0 0.0 0.00 0.00 0.00 87 1021.8
20260905084501 63 55 4.0 0.0 0.00 0.00 0.00 85 1021.7
20260905084001 63 43 5.0 0.0 0.00 0.00 0.00 85 1021.7
20260905083502 63 56 4.0 0.0 0.00 0.00 0.00 85 1021.6
20260905083001 63 41 8.0 0.0 0.00 0.00 0.00 85 1021.6
20260905082502 64 53 3.0 0.0 0.00 0.00 0.00 86 1021.5
20260905082001 63 68 5.0 0.0 0.00 0.00 0.00 85 1021.5
20260905081502 64 48 7.0 0.0 0.00 0.00 0.00 85 1021.5
20260905081001 63 39 6.0 0.0 0.00 0.00 0.00 85 1021.4
20260905080502 64 42 7.0 0.0 0.00 0.00 0.00 85 1021.3
20260905080001 64 33 4.0 0.0 0.00 0.00 0.00 84 1021.2
20260905075501 64 10 6.0 0.0 0.00 0.00 0.00 85 1021.2
20260905075002 63 347 5.0 0.0 0.00 0.00 0.00 86 1021.2
20260905074501 63 25 6.0 0.0 0.00 0.00 0.00 87 1020.8
20260905074002 63 27 5.0 0.0 0.00 0.00 0.00 86 1021.0
20260905073501 63 43 4.0 0.0 0.00 0.00 0.00 85 1020.8
20260905073002 64 3 3.0 0.0 0.00 0.00 0.00 85 1020.9
20260905072501 64 336 2.0 0.0 0.00 0.00 0.00 88 1021.0
20260905072002 63 39 4.0 0.0 0.00 0.00 0.00 85 1020.8
20260905071501 63 55 2.0 0.0 0.00 0.00 0.00 85 1020.7
20260905071002 63 20 1.0 0.0 0.00 0.00 0.00 84 1020.8
20260905070501 63 36 2.0 0.0 0.00 0.00 0.00 88 1020.8
20260905070001 62 120 1.0 0.0 0.00 0.00 0.00 86 1020.6
20260905065502 64 104 4.0 0.0 0.00 0.00 0.00 83 1020.6
20260905065001 64 62 3.0 0.0 0.00 0.00 0.00 82 1020.5
20260905064502 65 337 2.0 0.0 0.00 0.00 0.00 78 1020.5
20260905064001 65 303 1.0 0.0 0.00 0.00 0.00 76 1020.5
20260905063502 65 304 2.0 0.0 0.00 0.00 0.00 76 1020.3
20260905063001 65 293 2.0 0.0 0.00 0.00 0.00 76 1020.4
20260905062502 65 310 2.0 0.0 0.00 0.00 0.00 75 1020.1
20260905062002 65 294 2.0 0.0 0.00 0.00 0.00 75 1020.1
20260905061501 65 303 3.0 0.0 0.00 0.00 0.00 74 1019.9
20260905061002 65 281 4.0 0.0 0.00 0.00 0.00 75 1019.9
20260905060501 65 297 2.0 0.0 0.00 0.00 0.00 75 1019.9
20260905060002 65 316 5.0 0.0 0.00 0.00 0.00 74 1019.9
20260905055501 65 267 2.0 0.0 0.00 0.00 0.00 73 1019.8
20260905055002 65 266 4.0 0.0 0.00 0.00 0.00 74 1019.7
20260905054501 65 238 2.0 0.0 0.00 0.00 0.00 75 1019.9
20260905054001 65 251 2.0 0.0 0.00 0.00 0.00 76 1019.8
20260905053501 65 228 3.0 0.0 0.00 0.00 0.00 74 1019.7
20260905053001 66 216 4.0 0.0 0.00 0.00 0.00 72 1019.7
20260905052502 67 257 2.0 0.0 0.00 0.00 0.00 69 1019.8
20260905052001 67 225 2.0 0.0 0.00 0.00 0.00 69 1019.8
20260905051502 66 265 2.0 0.0 0.00 0.00 0.00 70 1019.8
20260905051001 67 241 1.0 0.0 0.00 0.00 0.00 68 1019.8
20260905050502 67 235 2.0 0.0 0.00 0.00 0.00 68 1019.8
20260905050001 67 239 3.0 0.0 0.00 0.00 0.00 68 1019.7
20260905045502 67 245 1.0 0.0 0.00 0.00 0.00 68 1019.7
20260905045001 67 226 2.0 0.0 0.00 0.00 0.00 67 1019.7
20260905044502 67 264 0.0 0.0 0.00 0.00 0.00 68 1019.6
20260905044002 67 304 2.0 0.0 0.00 0.00 0.00 69 1019.6
20260905043501 67 229 2.0 0.0 0.00 0.00 0.00 68 1019.5
20260905043002 68 199 1.0 0.0 0.00 0.00 0.00 67 1019.5
20260905042501 68 214 0.0 0.0 0.00 0.00 0.00 66 1019.4
20260905042002 67 217 2.0 0.0 0.00 0.00 0.00 68 1019.4
20260905041501 67 207 2.0 0.0 0.00 0.00 0.00 68 1019.3
20260905041001 67 204 2.0 0.0 0.00 0.00 0.00 68 1019.2
20260905040502 67 211 2.0 0.0 0.00 0.00 0.00 68 1019.2
20260905040001 68 199 1.0 0.0 0.00 0.00 0.00 68 1019.1
20260905035501 68 190 1.0 0.0 0.00 0.00 0.00 67 1019.1
20260905035002 68 0 0.0 0.0 0.00 0.00 0.00 68 1018.9
20260905034501 67 0 0.0 0.0 0.00 0.00 0.00 69 1018.7
20260905034001 67 183 1.0 0.0 0.00 0.00 0.00 68 1018.7
20260905033502 67 0 0.0 0.0 0.00 0.00 0.00 69 1018.7
20260905033001 67 139 0.0 0.0 0.00 0.00 0.00 69 1018.5
20260905032501 67 102 1.0 0.0 0.00 0.00 0.00 68 1018.5
20260905032002 66 0 0.0 0.0 0.00 0.00 0.00 71 1018.5
20260905031502 65 197 1.0 0.0 0.00 0.00 0.00 75 1018.3
20260905031001 64 149 1.0 0.0 0.00 0.00 0.00 77 1018.3
20260905030502 64 149 2.0 0.0 0.00 0.00 0.00 77 1018.2
20260905030002 65 129 2.0 0.0 0.00 0.00 0.00 75 1018.2
20260905025501 66 153 2.0 0.0 0.00 0.00 0.00 73 1018.1
20260905025002 67 62 3.0 0.0 0.00 0.00 0.00 70 1018.0
20260905024502 66 56 3.0 0.0 0.00 0.00 0.00 72 1017.9
20260905024002 66 20 2.0 0.0 0.00 0.00 0.00 71 1018.0
20260905023502 67 336 2.0 0.0 0.00 0.00 0.00 69 1017.7
20260905023002 66 0 0.0 0.0 0.00 0.00 0.00 73 1017.6
20260905022501 66 353 1.0 0.0 0.00 0.00 0.00 73 1017.6
20260905022002 66 238 2.0 0.0 0.00 0.00 0.00 72 1017.5
20260905021502 66 215 2.0 0.0 0.00 0.00 0.00 71 1017.4
20260905021002 67 225 2.0 0.0 0.00 0.00 0.00 69 1017.5
20260905020502 67 202 2.0 0.0 0.00 0.00 0.00 68 1017.5
20260905020002 66 216 1.0 0.0 0.00 0.00 0.00 70 1017.5
20260905015501 67 214 3.0 0.0 0.00 0.00 0.00 68 1017.5
20260905015002 67 206 3.0 0.0 0.00 0.00 0.00 69 1017.3
20260905014502 68 175 2.0 0.0 0.00 0.00 0.00 68 1017.3
20260905014001 67 147 1.0 0.0 0.00 0.00 0.00 69 1017.3
20260905013502 68 79 2.0 0.0 0.00 0.00 0.00 66 1017.1
20260905013002 67 0 0.0 0.0 0.00 0.00 0.00 69 1017.1
20260905012501 66 209 2.0 0.0 0.00 0.00 0.00 70 1017.1
20260905012002 67 182 2.0 0.0 0.00 0.00 0.00 69 1017.1
20260905011502 69 186 3.0 0.0 0.00 0.00 0.00 63 1017.2
20260905011001 70 202 2.0 0.0 0.00 0.00 0.00 62 1017.2
20260905010502 70 256 1.0 0.0 0.00 0.00 0.00 61 1017.1
20260905010001 70 285 3.0 0.0 0.00 0.00 0.00 61 1017.2
20260905005501 70 237 2.0 0.0 0.00 0.00 0.00 61 1017.1
20260905005002 70 244 3.0 0.0 0.00 0.00 0.00 61 1017.1
20260905004502 70 259 3.0 0.0 0.00 0.00 0.00 61 1017.1
20260905004001 70 252 3.0 0.0 0.00 0.00 0.00 61 1017.3
20260905003502 70 249 2.0 0.0 0.00 0.00 0.00 61 1017.2
20260905003002 71 294 4.0 0.0 0.00 0.00 0.00 59 1017.2
20260905002501 71 242 2.0 0.0 0.00 0.00 0.00 59 1016.9
20260905002002 72 255 4.0 0.0 0.00 0.00 0.00 58 1016.9
20260905001502 72 218 2.0 0.0 0.00 0.00 0.00 58 1016.9
20260905001001 71 250 3.0 0.0 0.00 0.00 0.00 58 1017.0
20260905000502 72 269 1.0 0.0 0.00 0.00 0.00 58 1017.1
20260905000002 71 244 7.0 0.0 0.00 0.00 0.00 59 1017.1
20260904235501 71 277 5.0 0.0 0.00 0.00 0.00 60 1017.0
20260904235002 72 272 7.0 0.0 0.00 0.00 0.00 58 1017.0
20260904234502 72 273 5.0 0.0 0.00 0.00 0.00 58 1016.9
20260904234001 71 239 2.0 0.0 0.00 0.00 0.00 61 1016.9
20260904233502 69 247 5.0 0.0 0.00 0.00 0.00 65 1016.8
20260904233002 69 245 4.0 0.0 0.00 0.00 0.00 66 1016.8
20260904232501 68 251 4.0 0.0 0.00 0.00 0.00 68 1016.9
20260904232002 68 242 4.0 0.0 0.00 0.00 0.00 72 1017.0
20260904231502 68 256 3.0 0.0 0.00 0.00 0.00 72 1016.9
20260904231001 68 240 2.0 0.0 0.00 0.00 0.00 69 1017.0
20260904230502 68 245 2.0 0.0 0.00 0.00 0.00 69 1016.9